| time (UTC) | temp F | wind direction | speed MPH | gust MPH | rain 1hr in | rain 24hr in | rain mn in | humidity % | barometer mb |
| 20260901161607 | 73 | 244 | 3.0 | 5.0 | 0.05 | 0.26 | 0.24 | 98 | 1013.6 |
| 20260901161411 | 73 | 229 | 3.0 | 7.0 | 0.05 | 0.26 | 0.24 | 98 | 1013.7 |
| 20260901161105 | 73 | 227 | 2.0 | 7.0 | 0.05 | 0.26 | 0.24 | 98 | 1013.7 |
| 20260901160916 | 72 | 227 | 2.0 | 7.0 | 0.05 | 0.26 | 0.24 | 97 | 1013.7 |
| 20260901160610 | 72 | 232 | 2.0 | 6.0 | 0.06 | 0.26 | 0.24 | 98 | 1013.6 |
| 20260901160414 | 72 | 194 | 3.0 | 6.0 | 0.06 | 0.26 | 0.24 | 97 | 1013.5 |
| 20260901160107 | 72 | 194 | 3.0 | 6.0 | 0.07 | 0.26 | 0.24 | 97 | 1013.6 |
| 20260901155917 | 72 | 191 | 4.0 | 6.0 | 0.08 | 0.26 | 0.24 | 97 | 1013.7 |
| 20260901155610 | 72 | 202 | 3.0 | 5.0 | 0.09 | 0.26 | 0.24 | 98 | 1013.8 |
| 20260901155415 | 73 | 200 | 2.0 | 5.0 | 0.10 | 0.26 | 0.24 | 98 | 1013.9 |
| 20260901155109 | 73 | 259 | 3.0 | 4.0 | 0.10 | 0.26 | 0.24 | 98 | 1014.1 |
| 20260901154912 | 73 | 275 | 2.0 | 4.0 | 0.10 | 0.26 | 0.24 | 98 | 1014.2 |
| 20260901154606 | 72 | 278 | 2.0 | 4.0 | 0.10 | 0.26 | 0.24 | 98 | 1014.3 |
| 20260901154417 | 72 | 278 | 2.0 | 4.0 | 0.10 | 0.26 | 0.24 | 97 | 1014.3 |
| 20260901154111 | 72 | 279 | 2.0 | 4.0 | 0.11 | 0.26 | 0.24 | 97 | 1014.4 |
| 20260901153915 | 72 | 279 | 3.0 | 4.0 | 0.11 | 0.26 | 0.24 | 97 | 1014.3 |
| 20260901153608 | 72 | 287 | 2.0 | 3.0 | 0.09 | 0.24 | 0.22 | 97 | 1014.4 |
| 20260901153413 | 72 | 287 | 1.0 | 2.0 | 0.10 | 0.24 | 0.22 | 97 | 1014.4 |
| 20260901153113 | 72 | 287 | 1.0 | 3.0 | 0.10 | 0.24 | 0.22 | 97 | 1014.6 |
| 20260901152938 | 72 | 287 | 1.0 | 3.0 | 0.10 | 0.24 | 0.22 | 97 | 1014.6 |
| 20260901152611 | 72 | 287 | 0.0 | 3.0 | 0.11 | 0.24 | 0.22 | 97 | 1014.7 |
| 20260901152421 | 72 | 287 | 1.0 | 3.0 | 0.11 | 0.24 | 0.22 | 97 | 1014.5 |
| 20260901152116 | 72 | 287 | 2.0 | 3.0 | 0.09 | 0.22 | 0.20 | 97 | 1014.8 |
| 20260901151940 | 72 | 287 | 1.0 | 2.0 | 0.08 | 0.21 | 0.19 | 97 | 1014.9 |
| 20260901151618 | 72 | 287 | 0.0 | 1.0 | 0.08 | 0.21 | 0.19 | 97 | 1015.0 |
| 20260901151423 | 72 | 287 | 0.0 | 1.0 | 0.08 | 0.21 | 0.19 | 97 | 1015.1 |
| 20260901151117 | 72 | 287 | 0.0 | 1.0 | 0.08 | 0.21 | 0.19 | 97 | 1015.1 |
| 20260901150922 | 72 | 287 | 0.0 | 1.0 | 0.08 | 0.21 | 0.19 | 97 | 1015.1 |
| 20260901150615 | 72 | 287 | 0.0 | 1.0 | 0.07 | 0.20 | 0.18 | 97 | 1015.2 |
| 20260901150445 | 72 | 287 | 0.0 | 1.0 | 0.07 | 0.20 | 0.18 | 97 | 1015.2 |
| 20260901150118 | 72 | 287 | 0.0 | 1.0 | 0.06 | 0.19 | 0.17 | 97 | 1015.1 |
| 20260901145930 | 72 | 287 | 0.0 | 2.0 | 0.05 | 0.18 | 0.16 | 97 | 1015.0 |
| 20260901145621 | 72 | 287 | 0.0 | 2.0 | 0.04 | 0.17 | 0.15 | 97 | 1015.0 |
| 20260901145405 | 72 | 287 | 0.0 | 2.0 | 0.03 | 0.16 | 0.14 | 97 | 1015.0 |
| 20260901145120 | 72 | 287 | 1.0 | 2.0 | 0.03 | 0.16 | 0.14 | 98 | 1014.9 |
| 20260901144931 | 72 | 287 | 0.0 | 1.0 | 0.03 | 0.16 | 0.14 | 97 | 1014.9 |
| 20260901144624 | 72 | 287 | 0.0 | 0.0 | 0.03 | 0.16 | 0.14 | 97 | 1014.9 |
| 20260901144409 | 72 | 287 | 0.0 | 2.0 | 0.03 | 0.16 | 0.14 | 97 | 1015.0 |
| 20260901144122 | 72 | 287 | 0.0 | 3.0 | 0.02 | 0.15 | 0.13 | 97 | 1015.1 |
| 20260901143907 | 72 | 287 | 0.0 | 3.0 | 0.02 | 0.15 | 0.13 | 97 | 1014.9 |
| 20260901143627 | 72 | 287 | 2.0 | 3.0 | 0.02 | 0.15 | 0.13 | 97 | 1014.9 |
| 20260901143405 | 72 | 290 | 1.0 | 2.0 | 0.01 | 0.14 | 0.12 | 97 | 1014.9 |
| 20260901143104 | 72 | 290 | 0.0 | 1.0 | 0.01 | 0.14 | 0.12 | 97 | 1015.0 |
| 20260901142909 | 72 | 290 | 0.0 | 2.0 | 0.01 | 0.14 | 0.12 | 97 | 1015.0 |
| 20260901142624 | 72 | 290 | 0.0 | 2.0 | 0.00 | 0.13 | 0.11 | 97 | 1015.0 |
| 20260901142408 | 72 | 290 | 0.0 | 4.0 | 0.00 | 0.13 | 0.11 | 97 | 1015.0 |
| 20260901142128 | 72 | 290 | 1.0 | 4.0 | 0.00 | 0.13 | 0.11 | 97 | 1015.0 |
| 20260901141913 | 72 | 290 | 1.0 | 4.0 | 0.00 | 0.13 | 0.11 | 97 | 1015.0 |
| 20260901141607 | 72 | 290 | 2.0 | 4.0 | 0.00 | 0.13 | 0.11 | 97 | 1015.1 |
| 20260901141412 | 72 | 202 | 1.0 | 2.0 | 0.00 | 0.13 | 0.11 | 97 | 1015.0 |
| 20260901141106 | 72 | 202 | 0.0 | 1.0 | 0.00 | 0.13 | 0.11 | 97 | 1014.8 |
| 20260901140916 | 72 | 202 | 0.0 | 1.0 | 0.00 | 0.13 | 0.11 | 97 | 1014.7 |
| 20260901140610 | 72 | 202 | 0.0 | 1.0 | 0.00 | 0.13 | 0.11 | 98 | 1014.8 |
| 20260901140435 | 72 | 202 | 1.0 | 1.0 | 0.00 | 0.13 | 0.11 | 98 | 1014.7 |
| 20260901140113 | 72 | 202 | 0.0 | 1.0 | 0.00 | 0.13 | 0.11 | 98 | 1014.6 |
| 20260901135913 | 72 | 202 | 0.0 | 2.0 | 0.00 | 0.13 | 0.11 | 98 | 1014.5 |
| 20260901135611 | 72 | 202 | 0.0 | 3.0 | 0.00 | 0.13 | 0.11 | 97 | 1014.3 |
| 20260901135412 | 72 | 202 | 1.0 | 3.0 | 0.00 | 0.13 | 0.11 | 97 | 1014.4 |
| 20260901135116 | 72 | 202 | 1.0 | 3.0 | 0.00 | 0.13 | 0.11 | 97 | 1014.5 |
| 20260901134938 | 72 | 202 | 1.0 | 3.0 | 0.00 | 0.13 | 0.11 | 97 | 1014.5 |
| 20260901134615 | 72 | 202 | 1.0 | 3.0 | 0.00 | 0.13 | 0.11 | 97 | 1014.4 |
| 20260901134421 | 72 | 202 | 2.0 | 3.0 | 0.00 | 0.13 | 0.11 | 97 | 1014.4 |
| 20260901134140 | 72 | 202 | 0.0 | 3.0 | 0.00 | 0.13 | 0.11 | 98 | 1014.4 |
| 20260901133947 | 72 | 202 | 1.0 | 3.0 | 0.00 | 0.13 | 0.11 | 98 | 1014.4 |
| 20260901133604 | 72 | 202 | 1.0 | 2.0 | 0.00 | 0.13 | 0.11 | 99 | 1014.4 |
| 20260901133423 | 72 | 202 | 2.0 | 2.0 | 0.00 | 0.13 | 0.11 | 98 | 1014.4 |
| 20260901133121 | 71 | 202 | 1.0 | 2.0 | 0.00 | 0.13 | 0.11 | 98 | 1014.4 |
| 20260901132922 | 71 | 202 | 1.0 | 2.0 | 0.00 | 0.13 | 0.11 | 98 | 1014.5 |
| 20260901132626 | 71 | 202 | 0.0 | 2.0 | 0.00 | 0.13 | 0.11 | 98 | 1014.5 |
| 20260901132408 | 71 | 202 | 1.0 | 2.0 | 0.00 | 0.13 | 0.11 | 97 | 1014.5 |
| 20260901132105 | 71 | 202 | 1.0 | 2.0 | 0.00 | 0.13 | 0.11 | 98 | 1014.5 |
| 20260901131926 | 71 | 202 | 1.0 | 2.0 | 0.00 | 0.13 | 0.11 | 98 | 1014.6 |
| 20260901131608 | 71 | 202 | 0.0 | 2.0 | 0.00 | 0.13 | 0.11 | 98 | 1014.5 |
| 20260901131410 | 71 | 202 | 1.0 | 2.0 | 0.00 | 0.13 | 0.11 | 98 | 1014.6 |
| 20260901131107 | 71 | 202 | 1.0 | 2.0 | 0.00 | 0.13 | 0.11 | 98 | 1014.6 |
| 20260901130907 | 71 | 202 | 1.0 | 2.0 | 0.00 | 0.13 | 0.11 | 98 | 1014.6 |
| 20260901130606 | 71 | 202 | 1.0 | 2.0 | 0.00 | 0.13 | 0.11 | 98 | 1014.6 |
| 20260901130412 | 71 | 202 | 0.0 | 2.0 | 0.00 | 0.13 | 0.11 | 98 | 1014.7 |
| 20260901130110 | 71 | 202 | 0.0 | 0.0 | 0.00 | 0.13 | 0.11 | 98 | 1014.6 |
| 20260901125911 | 71 | 202 | 0.0 | 0.0 | 0.00 | 0.13 | 0.11 | 98 | 1014.7 |
| 20260901125609 | 71 | 202 | 0.0 | 1.0 | 0.00 | 0.13 | 0.11 | 98 | 1014.6 |
| 20260901125437 | 71 | 202 | 0.0 | 1.0 | 0.00 | 0.13 | 0.11 | 98 | 1014.6 |
| 20260901125114 | 71 | 202 | 0.0 | 1.0 | 0.00 | 0.13 | 0.11 | 98 | 1014.6 |
| 20260901124915 | 71 | 202 | 0.0 | 1.0 | 0.00 | 0.13 | 0.11 | 98 | 1014.8 |
| 20260901124611 | 71 | 202 | 0.0 | 1.0 | 0.00 | 0.13 | 0.11 | 99 | 1014.8 |
| 20260901124417 | 71 | 202 | 0.0 | 2.0 | 0.00 | 0.13 | 0.11 | 98 | 1014.8 |
| 20260901124114 | 71 | 202 | 0.0 | 3.0 | 0.00 | 0.13 | 0.11 | 98 | 1014.7 |
| 20260901123915 | 71 | 202 | 0.0 | 3.0 | 0.00 | 0.13 | 0.11 | 98 | 1014.7 |
| 20260901123613 | 71 | 202 | 2.0 | 3.0 | 0.00 | 0.13 | 0.11 | 98 | 1014.7 |
| 20260901123413 | 71 | 202 | 1.0 | 3.0 | 0.00 | 0.13 | 0.11 | 98 | 1014.6 |
| 20260901123118 | 71 | 202 | 2.0 | 3.0 | 0.00 | 0.13 | 0.11 | 98 | 1014.7 |
| 20260901122938 | 71 | 202 | 2.0 | 3.0 | 0.00 | 0.13 | 0.11 | 98 | 1014.7 |
| 20260901122615 | 71 | 202 | 0.0 | 0.0 | 0.00 | 0.13 | 0.11 | 98 | 1014.7 |
| 20260901122422 | 71 | 202 | 0.0 | 0.0 | 0.00 | 0.13 | 0.11 | 98 | 1014.7 |
| 20260901122119 | 71 | 202 | 0.0 | 0.0 | 0.00 | 0.13 | 0.11 | 98 | 1014.6 |
| 20260901121920 | 71 | 202 | 0.0 | 1.0 | 0.01 | 0.13 | 0.11 | 98 | 1014.7 |
| 20260901121618 | 71 | 202 | 0.0 | 3.0 | 0.01 | 0.13 | 0.11 | 98 | 1014.7 |
| 20260901121419 | 71 | 202 | 0.0 | 3.0 | 0.01 | 0.13 | 0.11 | 98 | 1014.6 |
| 20260901121123 | 71 | 202 | 1.0 | 3.0 | 0.01 | 0.13 | 0.11 | 98 | 1014.5 |
| 20260901120923 | 71 | 202 | 1.0 | 3.0 | 0.01 | 0.13 | 0.11 | 98 | 1014.5 |
| 20260901120619 | 71 | 202 | 1.0 | 3.0 | 0.01 | 0.13 | 0.11 | 98 | 1014.4 |
| 20260901120420 | 70 | 202 | 2.0 | 3.0 | 0.01 | 0.13 | 0.11 | 98 | 1014.3 |
| 20260901120117 | 70 | 200 | 0.0 | 3.0 | 0.01 | 0.13 | 0.11 | 98 | 1014.3 |
| 20260901115945 | 70 | 200 | 0.0 | 3.0 | 0.01 | 0.13 | 0.11 | 98 | 1014.3 |
| 20260901115622 | 70 | 200 | 1.0 | 3.0 | 0.01 | 0.13 | 0.11 | 98 | 1014.3 |
| 20260901115449 | 70 | 200 | 1.0 | 3.0 | 0.01 | 0.13 | 0.11 | 98 | 1014.2 |
| 20260901115127 | 70 | 200 | 1.0 | 2.0 | 0.01 | 0.13 | 0.11 | 98 | 1014.2 |
| 20260901114905 | 70 | 200 | 1.0 | 2.0 | 0.01 | 0.13 | 0.11 | 98 | 1014.2 |
| 20260901114625 | 70 | 200 | 0.0 | 2.0 | 0.01 | 0.13 | 0.11 | 98 | 1014.4 |
| 20260901114410 | 70 | 200 | 0.0 | 2.0 | 0.01 | 0.13 | 0.11 | 98 | 1014.5 |
| 20260901114108 | 70 | 200 | 1.0 | 2.0 | 0.01 | 0.13 | 0.11 | 98 | 1014.5 |
| 20260901113909 | 71 | 200 | 1.0 | 2.0 | 0.01 | 0.13 | 0.11 | 98 | 1014.5 |
| 20260901113607 | 71 | 200 | 1.0 | 2.0 | 0.01 | 0.13 | 0.11 | 98 | 1014.5 |
| 20260901113407 | 70 | 200 | 1.0 | 2.0 | 0.01 | 0.13 | 0.11 | 98 | 1014.5 |
| 20260901113112 | 70 | 200 | 1.0 | 2.0 | 0.01 | 0.13 | 0.11 | 98 | 1014.7 |
| 20260901112913 | 70 | 200 | 0.0 | 1.0 | 0.01 | 0.13 | 0.11 | 98 | 1014.7 |
| 20260901112610 | 70 | 200 | 0.0 | 0.0 | 0.01 | 0.13 | 0.11 | 98 | 1014.7 |
| 20260901112411 | 70 | 200 | 0.0 | 0.0 | 0.01 | 0.13 | 0.11 | 98 | 1014.6 |
| 20260901112132 | 70 | 200 | 0.0 | 0.0 | 0.00 | 0.12 | 0.10 | 98 | 1014.5 |
| 20260901111916 | 70 | 200 | 0.0 | 0.0 | 0.00 | 0.12 | 0.10 | 98 | 1014.6 |
| 20260901111610 | 70 | 200 | 0.0 | 0.0 | 0.00 | 0.12 | 0.10 | 98 | 1014.7 |
| 20260901111442 | 70 | 200 | 0.0 | 0.0 | 0.00 | 0.12 | 0.10 | 98 | 1014.7 |
| 20260901111136 | 70 | 200 | 0.0 | 0.0 | 0.00 | 0.12 | 0.10 | 98 | 1014.6 |
| 20260901110926 | 70 | 200 | 0.0 | 0.0 | 0.00 | 0.12 | 0.10 | 98 | 1014.6 |
| 20260901110619 | 70 | 200 | 0.0 | 0.0 | 0.00 | 0.12 | 0.10 | 98 | 1014.7 |
| 20260901110424 | 70 | 200 | 0.0 | 0.0 | 0.00 | 0.12 | 0.10 | 98 | 1014.8 |
| 20260901110118 | 70 | 200 | 0.0 | 0.0 | 0.00 | 0.12 | 0.10 | 98 | 1014.9 |
| 20260901105922 | 70 | 200 | 0.0 | 0.0 | 0.00 | 0.12 | 0.10 | 98 | 1014.9 |
| 20260901105624 | 70 | 200 | 0.0 | 0.0 | 0.00 | 0.12 | 0.10 | 98 | 1015.0 |
| 20260901105428 | 70 | 200 | 0.0 | 0.0 | 0.00 | 0.12 | 0.10 | 98 | 1014.9 |
| 20260901105121 | 70 | 200 | 0.0 | 2.0 | 0.00 | 0.12 | 0.10 | 98 | 1014.9 |
| 20260901104906 | 70 | 200 | 0.0 | 2.0 | 0.00 | 0.12 | 0.10 | 98 | 1014.9 |
| 20260901104626 | 70 | 200 | 0.0 | 3.0 | 0.00 | 0.12 | 0.10 | 98 | 1014.9 |
| 20260901104410 | 70 | 200 | 0.0 | 3.0 | 0.00 | 0.12 | 0.10 | 98 | 1014.8 |
| 20260901104124 | 70 | 200 | 1.0 | 3.0 | 0.00 | 0.12 | 0.10 | 98 | 1014.8 |
| 20260901103908 | 70 | 200 | 0.0 | 2.0 | 0.00 | 0.12 | 0.10 | 98 | 1014.8 |
| 20260901103622 | 70 | 200 | 1.0 | 1.0 | 0.00 | 0.12 | 0.10 | 98 | 1014.8 |
| 20260901103434 | 70 | 200 | 0.0 | 0.0 | 0.00 | 0.12 | 0.10 | 98 | 1014.8 |
| 20260901103107 | 70 | 200 | 0.0 | 0.0 | 0.00 | 0.12 | 0.10 | 98 | 1014.7 |
| 20260901102912 | 70 | 200 | 0.0 | 0.0 | 0.00 | 0.12 | 0.10 | 98 | 1014.7 |
| 20260901102605 | 70 | 200 | 0.0 | 0.0 | 0.00 | 0.12 | 0.10 | 98 | 1014.7 |
| 20260901102410 | 70 | 200 | 0.0 | 0.0 | 0.00 | 0.12 | 0.10 | 98 | 1014.7 |
| 20260901102131 | 70 | 200 | 0.0 | 0.0 | 0.00 | 0.12 | 0.10 | 98 | 1014.7 |
| 20260901101914 | 70 | 200 | 0.0 | 0.0 | 0.00 | 0.12 | 0.10 | 98 | 1014.7 |
| 20260901101636 | 70 | 200 | 0.0 | 1.0 | 0.00 | 0.12 | 0.10 | 98 | 1014.7 |
| 20260901101436 | 70 | 200 | 0.0 | 1.0 | 0.00 | 0.12 | 0.10 | 98 | 1014.6 |
| 20260901101120 | 70 | 200 | 0.0 | 1.0 | 0.00 | 0.12 | 0.10 | 98 | 1014.7 |
| 20260901100921 | 70 | 200 | 0.0 | 1.0 | 0.00 | 0.12 | 0.10 | 98 | 1014.6 |
| 20260901100618 | 70 | 200 | 0.0 | 2.0 | 0.00 | 0.12 | 0.10 | 98 | 1014.6 |
| 20260901100419 | 70 | 200 | 0.0 | 2.0 | 0.00 | 0.12 | 0.10 | 98 | 1014.5 |
| 20260901100115 | 70 | 200 | 0.0 | 2.0 | 0.00 | 0.12 | 0.10 | 98 | 1014.5 |
| 20260901095922 | 70 | 200 | 1.0 | 2.0 | 0.00 | 0.12 | 0.10 | 98 | 1014.5 |
| 20260901095620 | 70 | 200 | 1.0 | 2.0 | 0.00 | 0.12 | 0.10 | 98 | 1014.6 |
| 20260901095420 | 70 | 200 | 1.0 | 2.0 | 0.00 | 0.12 | 0.10 | 98 | 1014.5 |
| 20260901095118 | 70 | 200 | 0.0 | 2.0 | 0.00 | 0.12 | 0.10 | 98 | 1014.6 |
| 20260901094918 | 70 | 200 | 1.0 | 2.0 | 0.00 | 0.12 | 0.10 | 98 | 1014.7 |
| 20260901094622 | 70 | 200 | 0.0 | 2.0 | 0.00 | 0.12 | 0.10 | 98 | 1014.6 |
| 20260901094422 | 70 | 200 | 1.0 | 2.0 | 0.00 | 0.12 | 0.10 | 98 | 1014.5 |
| 20260901094120 | 70 | 200 | 1.0 | 2.0 | 0.00 | 0.12 | 0.10 | 98 | 1014.4 |
| 20260901093920 | 70 | 200 | 1.0 | 2.0 | 0.00 | 0.12 | 0.10 | 98 | 1014.6 |
| 20260901093619 | 70 | 200 | 0.0 | 1.0 | 0.00 | 0.12 | 0.10 | 98 | 1014.6 |
| 20260901093425 | 70 | 200 | 0.0 | 1.0 | 0.00 | 0.12 | 0.10 | 97 | 1014.6 |
| 20260901093122 | 70 | 200 | 0.0 | 0.0 | 0.00 | 0.12 | 0.10 | 98 | 1014.6 |
| 20260901092923 | 70 | 200 | 0.0 | 0.0 | 0.00 | 0.12 | 0.10 | 98 | 1014.6 |
| 20260901092621 | 70 | 200 | 0.0 | 0.0 | 0.00 | 0.12 | 0.10 | 98 | 1014.5 |
| 20260901092449 | 70 | 200 | 0.0 | 0.0 | 0.00 | 0.12 | 0.10 | 97 | 1014.5 |
| 20260901092105 | 70 | 200 | 0.0 | 0.0 | 0.00 | 0.12 | 0.10 | 97 | 1014.6 |
| 20260901091905 | 70 | 200 | 0.0 | 0.0 | 0.00 | 0.12 | 0.10 | 97 | 1014.6 |
| 20260901091622 | 70 | 200 | 0.0 | 0.0 | 0.00 | 0.12 | 0.10 | 97 | 1014.5 |
| 20260901091428 | 70 | 200 | 0.0 | 0.0 | 0.00 | 0.12 | 0.10 | 97 | 1014.5 |
| 20260901091123 | 70 | 200 | 0.0 | 0.0 | 0.00 | 0.12 | 0.10 | 97 | 1014.6 |
| 20260901090932 | 70 | 200 | 0.0 | 0.0 | 0.00 | 0.12 | 0.10 | 97 | 1014.6 |
| 20260901090628 | 70 | 200 | 0.0 | 1.0 | 0.00 | 0.12 | 0.10 | 97 | 1014.6 |
| 20260901090430 | 70 | 200 | 0.0 | 1.0 | 0.00 | 0.12 | 0.10 | 97 | 1014.6 |
| 20260901090107 | 70 | 200 | 0.0 | 1.0 | 0.00 | 0.12 | 0.10 | 97 | 1014.6 |
| 20260901085907 | 70 | 200 | 1.0 | 1.0 | 0.00 | 0.12 | 0.10 | 97 | 1014.6 |
| 20260901085632 | 70 | 200 | 0.0 | 1.0 | 0.00 | 0.12 | 0.10 | 98 | 1014.6 |
| 20260901085412 | 70 | 200 | 0.0 | 1.0 | 0.00 | 0.12 | 0.10 | 97 | 1014.6 |
| 20260901085110 | 70 | 200 | 0.0 | 1.0 | 0.00 | 0.12 | 0.10 | 97 | 1014.7 |
| 20260901084937 | 70 | 200 | 0.0 | 1.0 | 0.00 | 0.12 | 0.10 | 97 | 1014.7 |
| 20260901084635 | 70 | 200 | 0.0 | 2.0 | 0.00 | 0.12 | 0.10 | 97 | 1014.7 |
| 20260901084420 | 70 | 200 | 0.0 | 2.0 | 0.00 | 0.12 | 0.10 | 97 | 1014.7 |
| 20260901084138 | 70 | 200 | 0.0 | 2.0 | 0.00 | 0.12 | 0.10 | 97 | 1014.8 |
| 20260901083945 | 70 | 200 | 1.0 | 2.0 | 0.00 | 0.12 | 0.10 | 97 | 1014.8 |
| 20260901083618 | 70 | 200 | 1.0 | 2.0 | 0.00 | 0.12 | 0.10 | 98 | 1014.9 |
| 20260901083443 | 70 | 200 | 1.0 | 1.0 | 0.00 | 0.12 | 0.10 | 97 | 1014.9 |
| 20260901083122 | 70 | 200 | 0.0 | 2.0 | 0.00 | 0.12 | 0.10 | 97 | 1015.0 |
| 20260901082927 | 70 | 200 | 0.0 | 2.0 | 0.00 | 0.12 | 0.10 | 97 | 1014.9 |
| 20260901082620 | 70 | 200 | 0.0 | 2.0 | 0.00 | 0.12 | 0.10 | 97 | 1015.0 |
| 20260901082431 | 70 | 200 | 0.0 | 2.0 | 0.00 | 0.12 | 0.10 | 97 | 1014.9 |
| 20260901082125 | 70 | 200 | 1.0 | 2.0 | 0.00 | 0.12 | 0.10 | 97 | 1014.9 |
| 20260901081909 | 70 | 200 | 0.0 | 2.0 | 0.00 | 0.12 | 0.10 | 97 | 1014.9 |
| 20260901081629 | 70 | 200 | 1.0 | 2.0 | 0.00 | 0.12 | 0.10 | 97 | 1014.9 |
| 20260901081414 | 70 | 200 | 1.0 | 2.0 | 0.00 | 0.12 | 0.10 | 97 | 1014.9 |
| 20260901081108 | 70 | 200 | 0.0 | 2.0 | 0.00 | 0.12 | 0.10 | 97 | 1015.0 |
| 20260901080910 | 70 | 200 | 0.0 | 2.0 | 0.00 | 0.12 | 0.10 | 97 | 1015.0 |
| 20260901080624 | 70 | 200 | 1.0 | 2.0 | 0.00 | 0.12 | 0.10 | 97 | 1015.0 |
| 20260901080409 | 70 | 200 | 0.0 | 1.0 | 0.00 | 0.12 | 0.10 | 97 | 1015.0 |
| 20260901080129 | 70 | 200 | 1.0 | 1.0 | 0.01 | 0.12 | 0.10 | 97 | 1014.9 |
| 20260901075912 | 70 | 200 | 0.0 | 2.0 | 0.01 | 0.12 | 0.10 | 97 | 1014.9 |
| 20260901075606 | 71 | 200 | 0.0 | 2.0 | 0.02 | 0.12 | 0.10 | 97 | 1015.0 |
| 20260901075410 | 71 | 200 | 0.0 | 2.0 | 0.02 | 0.12 | 0.10 | 98 | 1015.0 |
| 20260901075110 | 70 | 200 | 1.0 | 2.0 | 0.02 | 0.12 | 0.10 | 98 | 1015.0 |
| 20260901074913 | 70 | 200 | 0.0 | 1.0 | 0.02 | 0.12 | 0.10 | 97 | 1014.9 |
| 20260901074607 | 70 | 200 | 0.0 | 0.0 | 0.02 | 0.12 | 0.10 | 97 | 1015.0 |
| 20260901074412 | 70 | 200 | 0.0 | 0.0 | 0.02 | 0.12 | 0.10 | 97 | 1015.1 |
| 20260901074106 | 70 | 200 | 0.0 | 0.0 | 0.02 | 0.12 | 0.10 | 97 | 1015.0 |
| 20260901073917 | 70 | 200 | 0.0 | 1.0 | 0.02 | 0.12 | 0.10 | 97 | 1015.1 |
| 20260901073611 | 70 | 200 | 0.0 | 1.0 | 0.02 | 0.12 | 0.10 | 97 | 1015.1 |
| 20260901073415 | 70 | 200 | 0.0 | 1.0 | 0.02 | 0.12 | 0.10 | 97 | 1015.0 |
| 20260901073108 | 70 | 200 | 0.0 | 2.0 | 0.02 | 0.12 | 0.10 | 97 | 1015.1 |
| 20260901072913 | 70 | 200 | 0.0 | 2.0 | 0.02 | 0.12 | 0.10 | 97 | 1015.1 |
| 20260901072614 | 70 | 200 | 0.0 | 2.0 | 0.02 | 0.12 | 0.10 | 97 | 1015.2 |
| 20260901072417 | 70 | 200 | 0.0 | 2.0 | 0.02 | 0.12 | 0.10 | 97 | 1015.2 |
| 20260901072110 | 70 | 200 | 0.0 | 2.0 | 0.02 | 0.12 | 0.10 | 97 | 1015.2 |
| 20260901071914 | 70 | 200 | 0.0 | 2.0 | 0.02 | 0.12 | 0.10 | 97 | 1015.3 |
| 20260901071636 | 70 | 200 | 1.0 | 2.0 | 0.02 | 0.12 | 0.10 | 97 | 1015.2 |
| 20260901071419 | 70 | 200 | 1.0 | 2.0 | 0.02 | 0.12 | 0.10 | 97 | 1015.3 |
| 20260901071113 | 70 | 200 | 0.0 | 2.0 | 0.02 | 0.12 | 0.10 | 97 | 1015.3 |
| 20260901070925 | 70 | 200 | 1.0 | 2.0 | 0.02 | 0.12 | 0.10 | 97 | 1015.3 |
| 20260901070618 | 70 | 200 | 0.0 | 1.0 | 0.02 | 0.12 | 0.10 | 97 | 1015.3 |
| 20260901070423 | 70 | 200 | 0.0 | 2.0 | 0.02 | 0.12 | 0.10 | 97 | 1015.3 |
| 20260901070117 | 70 | 200 | 0.0 | 3.0 | 0.01 | 0.11 | 0.09 | 97 | 1015.4 |
| 20260901065944 | 70 | 200 | 0.0 | 3.0 | 0.01 | 0.11 | 0.09 | 97 | 1015.3 |
| 20260901065621 | 70 | 200 | 2.0 | 4.0 | 0.00 | 0.10 | 0.08 | 97 | 1015.2 |
| 20260901065405 | 70 | 202 | 2.0 | 5.0 | 0.00 | 0.10 | 0.08 | 97 | 1015.3 |
| 20260901065116 | 70 | 202 | 2.0 | 5.0 | 0.00 | 0.10 | 0.08 | 97 | 1015.3 |
| 20260901064916 | 70 | 202 | 2.0 | 5.0 | 0.00 | 0.10 | 0.08 | 97 | 1015.3 |
| 20260901064620 | 70 | 202 | 4.0 | 5.0 | 0.00 | 0.10 | 0.08 | 97 | 1015.3 |
| 20260901064406 | 70 | 187 | 4.0 | 5.0 | 0.00 | 0.10 | 0.08 | 97 | 1015.4 |
| 20260901064140 | 70 | 304 | 2.0 | 4.0 | 0.00 | 0.10 | 0.08 | 97 | 1015.7 |
| 20260901063926 | 70 | 303 | 2.0 | 4.0 | 0.00 | 0.10 | 0.08 | 97 | 1015.7 |
| 20260901063623 | 70 | 303 | 2.0 | 4.0 | 0.00 | 0.10 | 0.08 | 97 | 1015.7 |
| 20260901063424 | 70 | 270 | 2.0 | 3.0 | 0.00 | 0.10 | 0.08 | 97 | 1015.7 |
| 20260901063118 | 70 | 228 | 2.0 | 3.0 | 0.00 | 0.10 | 0.08 | 97 | 1015.6 |
| 20260901062925 | 70 | 228 | 2.0 | 3.0 | 0.00 | 0.10 | 0.08 | 97 | 1015.6 |
| 20260901062622 | 70 | 227 | 2.0 | 3.0 | 0.00 | 0.10 | 0.08 | 97 | 1015.7 |
| 20260901062422 | 70 | 227 | 2.0 | 3.0 | 0.00 | 0.10 | 0.08 | 97 | 1015.7 |
| 20260901062120 | 70 | 227 | 0.0 | 2.0 | 0.00 | 0.10 | 0.08 | 97 | 1015.6 |
| 20260901061948 | 70 | 227 | 0.0 | 2.0 | 0.00 | 0.10 | 0.08 | 97 | 1015.6 |
| 20260901061605 | 70 | 227 | 1.0 | 2.0 | 0.00 | 0.10 | 0.08 | 97 | 1015.6 |
| 20260901061406 | 70 | 227 | 0.0 | 2.0 | 0.00 | 0.10 | 0.08 | 97 | 1015.6 |
| 20260901061131 | 70 | 227 | 0.0 | 2.0 | 0.00 | 0.10 | 0.08 | 97 | 1015.5 |
| 20260901060911 | 70 | 227 | 1.0 | 2.0 | 0.00 | 0.10 | 0.08 | 97 | 1015.5 |
| 20260901060629 | 70 | 227 | 1.0 | 4.0 | 0.00 | 0.10 | 0.08 | 97 | 1015.5 |
| 20260901060414 | 70 | 227 | 1.0 | 4.0 | 0.00 | 0.10 | 0.08 | 97 | 1015.5 |
| 20260901060112 | 70 | 227 | 2.0 | 4.0 | 0.00 | 0.10 | 0.08 | 97 | 1015.6 |
| 20260901055913 | 70 | 227 | 2.0 | 4.0 | 0.00 | 0.10 | 0.08 | 97 | 1015.6 |
| 20260901055639 | 70 | 227 | 1.0 | 2.0 | 0.00 | 0.10 | 0.08 | 97 | 1015.6 |
| 20260901055438 | 70 | 227 | 1.0 | 2.0 | 0.00 | 0.10 | 0.08 | 97 | 1015.7 |
| 20260901055115 | 70 | 227 | 0.0 | 2.0 | 0.00 | 0.10 | 0.08 | 97 | 1015.8 |
| 20260901054922 | 70 | 227 | 0.0 | 0.0 | 0.00 | 0.10 | 0.08 | 97 | 1015.8 |
| 20260901054619 | 70 | 227 | 0.0 | 1.0 | 0.00 | 0.10 | 0.08 | 97 | 1015.9 |
| 20260901054418 | 70 | 227 | 0.0 | 2.0 | 0.00 | 0.10 | 0.08 | 97 | 1015.8 |
| 20260901054116 | 70 | 227 | 0.0 | 3.0 | 0.00 | 0.10 | 0.08 | 96 | 1015.8 |
| 20260901053944 | 70 | 227 | 0.0 | 4.0 | 0.00 | 0.10 | 0.08 | 96 | 1015.8 |
| 20260901053621 | 70 | 227 | 2.0 | 4.0 | 0.00 | 0.10 | 0.08 | 97 | 1015.8 |
| 20260901053422 | 70 | 227 | 1.0 | 4.0 | 0.00 | 0.10 | 0.08 | 97 | 1015.8 |
| 20260901053120 | 70 | 227 | 1.0 | 4.0 | 0.00 | 0.10 | 0.08 | 97 | 1015.9 |
| 20260901052919 | 70 | 227 | 1.0 | 4.0 | 0.00 | 0.10 | 0.08 | 97 | 1015.8 |
| 20260901052623 | 70 | 227 | 2.0 | 4.0 | 0.00 | 0.10 | 0.08 | 97 | 1015.8 |
| 20260901052405 | 70 | 227 | 2.0 | 4.0 | 0.00 | 0.10 | 0.08 | 96 | 1015.9 |
| 20260901052121 | 71 | 228 | 2.0 | 3.0 | 0.00 | 0.10 | 0.08 | 96 | 1015.9 |
| 20260901051921 | 71 | 228 | 2.0 | 2.0 | 0.00 | 0.10 | 0.08 | 96 | 1015.9 |
| 20260901051625 | 71 | 228 | 0.0 | 0.0 | 0.00 | 0.10 | 0.08 | 96 | 1016.0 |
| 20260901051408 | 71 | 228 | 0.0 | 0.0 | 0.00 | 0.10 | 0.08 | 96 | 1016.0 |
| 20260901051125 | 71 | 228 | 0.0 | 0.0 | 0.01 | 0.10 | 0.08 | 96 | 1016.0 |
| 20260901050905 | 71 | 228 | 0.0 | 0.0 | 0.02 | 0.10 | 0.08 | 97 | 1016.0 |
| 20260901050623 | 71 | 228 | 0.0 | 0.0 | 0.03 | 0.10 | 0.08 | 96 | 1016.1 |
| 20260901050430 | 70 | 228 | 0.0 | 0.0 | 0.03 | 0.10 | 0.08 | 96 | 1016.1 |
| 20260901050129 | 71 | 228 | 0.0 | 0.0 | 0.05 | 0.10 | 0.08 | 96 | 1016.2 |
| 20260901045908 | 71 | 228 | 0.0 | 0.0 | 0.06 | 0.10 | 0.08 | 96 | 1016.2 |
| 20260901045605 | 71 | 227 | 0.0 | 0.0 | 0.07 | 0.10 | 0.08 | 96 | 1016.2 |
| 20260901045406 | 71 | 228 | 0.0 | 0.0 | 0.07 | 0.10 | 0.08 | 96 | 1016.2 |
| 20260901045110 | 71 | 228 | 0.0 | 0.0 | 0.07 | 0.10 | 0.08 | 96 | 1016.1 |
| 20260901044932 | 71 | 228 | 0.0 | 2.0 | 0.08 | 0.10 | 0.08 | 96 | 1016.1 |
| 20260901044630 | 71 | 228 | 0.0 | 2.0 | 0.08 | 0.10 | 0.08 | 96 | 1016.1 |
| 20260901044414 | 71 | 228 | 0.0 | 2.0 | 0.08 | 0.10 | 0.08 | 96 | 1016.1 |
| 20260901044129 | 71 | 228 | 0.0 | 1.0 | 0.08 | 0.10 | 0.08 | 96 | 1016.2 |
| 20260901043912 | 71 | 227 | 0.0 | 0.0 | 0.08 | 0.10 | 0.08 | 96 | 1016.2 |
| 20260901043606 | 71 | 228 | 0.0 | 1.0 | 0.08 | 0.10 | 0.08 | 96 | 1016.1 |
| 20260901043417 | 71 | 228 | 0.0 | 2.0 | 0.09 | 0.10 | 0.08 | 96 | 1016.2 |
| 20260901043111 | 71 | 228 | 0.0 | 2.0 | 0.09 | 0.10 | 0.08 | 96 | 1016.1 |
| 20260901042916 | 71 | 228 | 0.0 | 2.0 | 0.09 | 0.10 | 0.08 | 96 | 1016.2 |
| 20260901042608 | 71 | 228 | 0.0 | 1.0 | 0.09 | 0.10 | 0.08 | 96 | 1016.1 |
| 20260901042419 | 71 | 228 | 0.0 | 1.0 | 0.09 | 0.10 | 0.08 | 96 | 1016.2 |
| 20260901042112 | 71 | 228 | 1.0 | 1.0 | 0.09 | 0.10 | 0.08 | 96 | 1016.1 |
| 20260901041916 | 71 | 228 | 0.0 | 0.0 | 0.09 | 0.10 | 0.08 | 95 | 1016.2 |
| 20260901041610 | 71 | 228 | 0.0 | 1.0 | 0.09 | 0.10 | 0.08 | 95 | 1016.2 |
| 20260901041415 | 71 | 228 | 0.0 | 3.0 | 0.09 | 0.10 | 0.08 | 95 | 1016.3 |
| 20260901041115 | 71 | 228 | 0.0 | 3.0 | 0.08 | 0.09 | 0.07 | 95 | 1016.3 |
| 20260901040919 | 71 | 228 | 1.0 | 3.0 | 0.07 | 0.08 | 0.06 | 95 | 1016.4 |
| 20260901040634 | 71 | 228 | 1.0 | 3.0 | 0.06 | 0.07 | 0.05 | 95 | 1016.3 |
| 20260901040129 | 71 | 228 | 0.0 | 1.0 | 0.03 | 0.04 | 0.02 | 95 | 1016.3 |
| 20260901035919 | 71 | 228 | 0.0 | 1.0 | 0.03 | 0.04 | 0.02 | 95 | 1016.3 |
| 20260901035612 | 71 | 228 | 0.0 | 1.0 | 0.02 | 0.03 | 0.01 | 95 | 1016.3 |
| 20260901035417 | 71 | 228 | 0.0 | 1.0 | 0.03 | 0.03 | 0.01 | 95 | 1016.3 |
| 20260901035137 | 71 | 228 | 0.0 | 1.0 | 0.03 | 0.03 | 0.01 | 95 | 1016.3 |
| 20260901034937 | 71 | 228 | 0.0 | 2.0 | 0.02 | 0.03 | 0.02 | 95 | 1016.3 |
| 20260901034613 | 71 | 228 | 0.0 | 2.0 | 0.02 | 0.03 | 0.02 | 95 | 1016.3 |
| 20260901034440 | 71 | 228 | 1.0 | 2.0 | 0.02 | 0.03 | 0.02 | 95 | 1016.3 |
| 20260901034116 | 71 | 228 | 1.0 | 2.0 | 0.02 | 0.03 | 0.02 | 95 | 1016.4 |
| 20260901033915 | 71 | 228 | 0.0 | 1.0 | 0.02 | 0.03 | 0.02 | 95 | 1016.4 |
| 20260901033640 | 71 | 228 | 0.0 | 2.0 | 0.02 | 0.03 | 0.02 | 95 | 1016.4 |
| 20260901033441 | 71 | 228 | 0.0 | 2.0 | 0.01 | 0.02 | 0.01 | 95 | 1016.4 |
| 20260901033144 | 71 | 227 | 0.0 | 2.0 | 0.01 | 0.02 | 0.01 | 95 | 1016.4 |
| 20260901032924 | 71 | 228 | 1.0 | 2.0 | 0.01 | 0.02 | 0.01 | 95 | 1016.4 |
| 20260901032622 | 71 | 228 | 1.0 | 2.0 | 0.01 | 0.02 | 0.01 | 94 | 1016.4 |
| 20260901032429 | 71 | 228 | 1.0 | 2.0 | 0.01 | 0.02 | 0.01 | 94 | 1016.4 |
| 20260901032127 | 71 | 228 | 1.0 | 2.0 | 0.01 | 0.02 | 0.01 | 94 | 1016.5 |
| 20260901031907 | 71 | 228 | 1.0 | 2.0 | 0.01 | 0.02 | 0.01 | 94 | 1016.5 |
| 20260901031605 | 71 | 228 | 1.0 | 2.0 | 0.01 | 0.02 | 0.01 | 94 | 1016.5 |
| 20260901031431 | 71 | 228 | 1.0 | 2.0 | 0.01 | 0.02 | 0.01 | 94 | 1016.5 |
| 20260901031128 | 71 | 228 | 0.0 | 1.0 | 0.01 | 0.02 | 0.01 | 94 | 1016.5 |
| 20260901030908 | 71 | 228 | 0.0 | 2.0 | 0.01 | 0.02 | 0.01 | 94 | 1016.5 |
| 20260901030628 | 71 | 228 | 1.0 | 2.0 | 0.01 | 0.02 | 0.01 | 93 | 1016.5 |
| 20260901030433 | 72 | 228 | 1.0 | 2.0 | 0.01 | 0.02 | 0.01 | 93 | 1016.5 |
| 20260901030109 | 72 | 228 | 1.0 | 2.0 | 0.01 | 0.02 | 0.01 | 93 | 1016.6 |
| 20260901025909 | 72 | 228 | 0.0 | 2.0 | 0.01 | 0.02 | 0.01 | 93 | 1016.6 |
| 20260901025633 | 72 | 228 | 0.0 | 2.0 | 0.01 | 0.02 | 0.01 | 93 | 1016.6 |
| 20260901025413 | 72 | 228 | 0.0 | 2.0 | 0.00 | 0.01 | 0.00 | 93 | 1016.6 |
| 20260901025111 | 72 | 228 | 1.0 | 2.0 | 0.00 | 0.01 | 0.00 | 93 | 1016.6 |
| 20260901024912 | 72 | 228 | 1.0 | 2.0 | 0.00 | 0.01 | 0.00 | 93 | 1016.6 |
| 20260901024610 | 72 | 228 | 1.0 | 1.0 | 0.00 | 0.01 | 0.00 | 93 | 1016.7 |
| 20260901024416 | 72 | 228 | 0.0 | 2.0 | 0.00 | 0.01 | 0.00 | 93 | 1016.7 |
| 20260901024114 | 72 | 228 | 0.0 | 2.0 | 0.00 | 0.01 | 0.00 | 92 | 1016.7 |
| 20260901023915 | 72 | 228 | 0.0 | 2.0 | 0.00 | 0.01 | 0.00 | 92 | 1016.7 |
| 20260901023613 | 72 | 228 | 1.0 | 2.0 | 0.00 | 0.01 | 0.00 | 93 | 1016.8 |
| 20260901023414 | 72 | 228 | 1.0 | 2.0 | 0.00 | 0.01 | 0.00 | 93 | 1016.8 |
| 20260901023135 | 72 | 228 | 0.0 | 2.0 | 0.00 | 0.01 | 0.00 | 93 | 1016.9 |
| 20260901022919 | 72 | 228 | 0.0 | 2.0 | 0.00 | 0.01 | 0.00 | 93 | 1016.9 |
| 20260901022613 | 72 | 228 | 1.0 | 2.0 | 0.00 | 0.01 | 0.00 | 92 | 1016.9 |
| 20260901022424 | 72 | 228 | 1.0 | 2.0 | 0.00 | 0.01 | 0.00 | 92 | 1016.9 |
| 20260901022117 | 72 | 228 | 0.0 | 1.0 | 0.00 | 0.01 | 0.00 | 92 | 1016.9 |
| 20260901021921 | 72 | 228 | 0.0 | 2.0 | 0.00 | 0.01 | 0.00 | 93 | 1017.0 |
| 20260901021643 | 72 | 228 | 0.0 | 2.0 | 0.00 | 0.01 | 0.00 | 93 | 1017.0 |
| 20260901021408 | 72 | 228 | 1.0 | 2.0 | 0.00 | 0.01 | 0.00 | 93 | 1017.0 |
| 20260901021121 | 72 | 228 | 0.0 | 1.0 | 0.00 | 0.01 | 0.00 | 93 | 1017.1 |
| 20260901020905 | 72 | 228 | 0.0 | 0.0 | 0.00 | 0.01 | 0.00 | 93 | 1017.1 |
| 20260901020619 | 72 | 228 | 0.0 | 0.0 | 0.00 | 0.01 | 0.00 | 93 | 1017.0 |
| 20260901020429 | 72 | 227 | 0.0 | 0.0 | 0.00 | 0.01 | 0.00 | 92 | 1017.0 |
| 20260901020123 | 72 | 228 | 0.0 | 0.0 | 0.00 | 0.01 | 0.00 | 93 | 1017.0 |
| 20260901015908 | 72 | 227 | 0.0 | 0.0 | 0.00 | 0.01 | 0.00 | 93 | 1017.0 |
| 20260901015622 | 72 | 228 | 0.0 | 0.0 | 0.00 | 0.01 | 0.00 | 93 | 1016.9 |
| 20260901015407 | 72 | 228 | 0.0 | 0.0 | 0.00 | 0.01 | 0.00 | 94 | 1017.0 |
| 20260901015127 | 72 | 228 | 0.0 | 0.0 | 0.00 | 0.01 | 0.00 | 93 | 1017.0 |
| 20260901014905 | 72 | 228 | 0.0 | 0.0 | 0.00 | 0.01 | 0.00 | 93 | 1017.0 |
| 20260901014626 | 72 | 228 | 0.0 | 0.0 | 0.00 | 0.01 | 0.00 | 93 | 1017.0 |
| 20260901014410 | 72 | 228 | 0.0 | 0.0 | 0.00 | 0.01 | 0.00 | 93 | 1016.9 |
| 20260901014130 | 72 | 228 | 0.0 | 0.0 | 0.00 | 0.01 | 0.00 | 93 | 1017.0 |
| 20260901013914 | 72 | 228 | 0.0 | 1.0 | 0.00 | 0.01 | 0.00 | 93 | 1017.0 |
| 20260901013608 | 72 | 228 | 0.0 | 1.0 | 0.00 | 0.01 | 0.00 | 93 | 1017.1 |
| 20260901013412 | 72 | 227 | 0.0 | 1.0 | 0.00 | 0.01 | 0.00 | 93 | 1017.1 |
| 20260901013128 | 72 | 228 | 0.0 | 2.0 | 0.00 | 0.01 | 0.00 | 93 | 1017.1 |
| 20260901012917 | 72 | 228 | 0.0 | 2.0 | 0.00 | 0.01 | 0.00 | 93 | 1017.1 |
| 20260901012612 | 72 | 228 | 1.0 | 2.0 | 0.00 | 0.01 | 0.00 | 92 | 1017.1 |
| 20260901012437 | 72 | 228 | 1.0 | 2.0 | 0.00 | 0.01 | 0.00 | 92 | 1017.1 |
| 20260901012136 | 72 | 228 | 0.0 | 1.0 | 0.00 | 0.01 | 0.00 | 92 | 1017.1 |
| 20260901011919 | 72 | 228 | 0.0 | 1.0 | 0.00 | 0.01 | 0.00 | 92 | 1017.0 |
| 20260901011619 | 72 | 228 | 0.0 | 1.0 | 0.00 | 0.01 | 0.00 | 93 | 1017.0 |
| 20260901011440 | 72 | 228 | 0.0 | 1.0 | 0.00 | 0.01 | 0.00 | 93 | 1017.1 |
| 20260901011116 | 72 | 227 | 0.0 | 0.0 | 0.00 | 0.01 | 0.00 | 92 | 1017.1 |
| 20260901010924 | 72 | 228 | 0.0 | 0.0 | 0.00 | 0.01 | 0.00 | 92 | 1017.0 |
| 20260901010621 | 72 | 228 | 0.0 | 0.0 | 0.00 | 0.01 | 0.00 | 92 | 1017.0 |
| 20260901010405 | 72 | 228 | 0.0 | 0.0 | 0.00 | 0.01 | 0.00 | 92 | 1017.0 |
| 20260901010119 | 72 | 228 | 0.0 | 0.0 | 0.00 | 0.01 | 0.00 | 92 | 1016.9 |
| 20260901005920 | 72 | 228 | 0.0 | 0.0 | 0.00 | 0.01 | 0.00 | 91 | 1017.0 |
| 20260901005618 | 72 | 228 | 0.0 | 1.0 | 0.00 | 0.01 | 0.00 | 91 | 1016.9 |
| 20260901005446 | 72 | 228 | 0.0 | 1.0 | 0.00 | 0.01 | 0.00 | 91 | 1016.9 |
| 20260901005150 | 73 | 228 | 0.0 | 1.0 | 0.00 | 0.01 | 0.00 | 90 | 1016.9 |
| 20260901004930 | 73 | 228 | 0.0 | 1.0 | 0.00 | 0.02 | 0.00 | 90 | 1016.9 |
| 20260901004608 | 73 | 228 | 0.0 | 1.0 | 0.00 | 0.02 | 0.00 | 90 | 1016.9 |
| 20260901004429 | 73 | 228 | 0.0 | 1.0 | 0.00 | 0.02 | 0.00 | 90 | 1016.9 |
| 20260901004133 | 73 | 228 | 0.0 | 1.0 | 0.00 | 0.02 | 0.00 | 90 | 1016.9 |
| 20260901003913 | 73 | 228 | 0.0 | 1.0 | 0.00 | 0.02 | 0.00 | 90 | 1016.9 |
| 20260901003638 | 73 | 228 | 0.0 | 1.0 | 0.00 | 0.02 | 0.00 | 89 | 1016.9 |
| 20260901003417 | 73 | 228 | 0.0 | 1.0 | 0.00 | 0.02 | 0.00 | 90 | 1016.9 |
| 20260901003115 | 73 | 228 | 0.0 | 1.0 | 0.00 | 0.02 | 0.00 | 89 | 1016.8 |
| 20260901002916 | 73 | 228 | 0.0 | 0.0 | 0.00 | 0.02 | 0.00 | 89 | 1016.7 |
| 20260901002641 | 73 | 228 | 0.0 | 1.0 | 0.00 | 0.02 | 0.00 | 89 | 1016.7 |
| 20260901002420 | 73 | 228 | 0.0 | 1.0 | 0.00 | 0.02 | 0.00 | 89 | 1016.7 |
| 20260901002118 | 73 | 228 | 0.0 | 1.0 | 0.00 | 0.02 | 0.00 | 88 | 1016.8 |
| 20260901001919 | 74 | 228 | 0.0 | 1.0 | 0.00 | 0.02 | 0.00 | 88 | 1016.7 |
| 20260901001623 | 74 | 228 | 0.0 | 1.0 | 0.00 | 0.02 | 0.00 | 87 | 1016.7 |
| 20260901001405 | 74 | 228 | 0.0 | 1.0 | 0.00 | 0.02 | 0.00 | 87 | 1016.7 |
| 20260901001121 | 74 | 228 | 0.0 | 1.0 | 0.00 | 0.02 | 0.00 | 87 | 1016.7 |
| 20260901000922 | 74 | 228 | 0.0 | 1.0 | 0.00 | 0.02 | 0.00 | 86 | 1016.7 |
| 20260901000647 | 74 | 228 | 0.0 | 1.0 | 0.00 | 0.02 | 0.00 | 85 | 1016.7 |
| 20260901000407 | 74 | 228 | 0.0 | 1.0 | 0.00 | 0.02 | 0.00 | 85 | 1016.7 |
| 20260901000126 | 75 | 228 | 0.0 | 2.0 | 0.00 | 0.02 | 0.00 | 85 | 1016.6 |
| 20260831235931 | 75 | 228 | 0.0 | 2.0 | 0.00 | 0.02 | 0.00 | 85 | 1016.6 |
| 20260831235607 | 75 | 228 | 1.0 | 2.0 | 0.00 | 0.02 | 0.00 | 85 | 1016.7 |
| 20260831235408 | 75 | 228 | 1.0 | 2.0 | 0.00 | 0.02 | 0.00 | 85 | 1016.7 |
| 20260831235105 | 74 | 228 | 1.0 | 2.0 | 0.00 | 0.02 | 0.00 | 85 | 1016.8 |
| 20260831234931 | 74 | 228 | 1.0 | 2.0 | 0.00 | 0.02 | 0.00 | 85 | 1016.8 |
| 20260831234629 | 74 | 228 | 0.0 | 1.0 | 0.00 | 0.02 | 0.00 | 84 | 1016.8 |
| 20260831234430 | 74 | 228 | 0.0 | 1.0 | 0.00 | 0.02 | 0.00 | 84 | 1016.8 |
| 20260831234129 | 74 | 228 | 0.0 | 1.0 | 0.00 | 0.02 | 0.00 | 84 | 1016.8 |
| 20260831233935 | 74 | 228 | 0.0 | 0.0 | 0.00 | 0.02 | 0.00 | 83 | 1016.8 |
| 20260831233608 | 75 | 228 | 0.0 | 1.0 | 0.00 | 0.02 | 0.00 | 83 | 1016.8 |
| 20260831233413 | 75 | 228 | 0.0 | 1.0 | 0.00 | 0.02 | 0.00 | 83 | 1016.8 |
| 20260831233134 | 75 | 228 | 0.0 | 1.0 | 0.00 | 0.02 | 0.00 | 83 | 1016.8 |
| 20260831232943 | 75 | 228 | 0.0 | 1.0 | 0.00 | 0.02 | 0.00 | 83 | 1016.9 |
| 20260831232637 | 75 | 228 | 0.0 | 1.0 | 0.00 | 0.02 | 0.00 | 83 | 1016.9 |
| 20260831232421 | 75 | 228 | 0.0 | 1.0 | 0.00 | 0.02 | 0.00 | 83 | 1016.9 |
| 20260831232114 | 75 | 228 | 0.0 | 1.0 | 0.00 | 0.02 | 0.00 | 82 | 1016.9 |
| 20260831231925 | 75 | 228 | 0.0 | 1.0 | 0.00 | 0.02 | 0.00 | 81 | 1016.9 |
| 20260831231618 | 75 | 228 | 0.0 | 1.0 | 0.00 | 0.02 | 0.00 | 81 | 1016.9 |
| 20260831231423 | 75 | 228 | 0.0 | 1.0 | 0.00 | 0.02 | 0.00 | 82 | 1016.9 |
| 20260831231115 | 75 | 228 | 0.0 | 1.0 | 0.00 | 0.02 | 0.00 | 82 | 1016.9 |
| 20260831230926 | 75 | 228 | 0.0 | 1.0 | 0.00 | 0.02 | 0.00 | 82 | 1016.9 |
| 20260831230619 | 75 | 228 | 0.0 | 1.0 | 0.00 | 0.02 | 0.00 | 82 | 1017.0 |
| 20260831230424 | 75 | 228 | 1.0 | 1.0 | 0.00 | 0.02 | 0.00 | 82 | 1017.0 |
| 20260831230118 | 75 | 228 | 0.0 | 1.0 | 0.00 | 0.02 | 0.00 | 81 | 1017.0 |
| 20260831225922 | 75 | 228 | 1.0 | 1.0 | 0.00 | 0.02 | 0.00 | 81 | 1017.0 |
| 20260831225622 | 75 | 228 | 0.0 | 0.0 | 0.00 | 0.02 | 0.00 | 82 | 1017.0 |
| 20260831225427 | 75 | 228 | 0.0 | 0.0 | 0.00 | 0.02 | 0.00 | 82 | 1017.0 |
| 20260831225142 | 75 | 228 | 0.0 | 0.0 | 0.00 | 0.02 | 0.00 | 82 | 1017.1 |
| 20260831224927 | 75 | 228 | 0.0 | 0.0 | 0.00 | 0.02 | 0.00 | 81 | 1017.1 |
| 20260831224624 | 75 | 228 | 0.0 | 0.0 | 0.00 | 0.02 | 0.00 | 81 | 1017.1 |
| 20260831224409 | 75 | 228 | 0.0 | 1.0 | 0.00 | 0.02 | 0.00 | 81 | 1017.0 |
| 20260831224123 | 75 | 228 | 0.0 | 1.0 | 0.00 | 0.02 | 0.00 | 81 | 1017.1 |
| 20260831223907 | 75 | 228 | 0.0 | 1.0 | 0.00 | 0.02 | 0.00 | 80 | 1017.1 |
| 20260831223619 | 76 | 228 | 0.0 | 1.0 | 0.00 | 0.02 | 0.00 | 80 | 1017.0 |
| 20260831223426 | 76 | 228 | 0.0 | 2.0 | 0.00 | 0.02 | 0.00 | 80 | 1017.0 |
| 20260831223105 | 76 | 228 | 0.0 | 2.0 | 0.00 | 0.02 | 0.00 | 80 | 1017.0 |
| 20260831222907 | 75 | 228 | 0.0 | 2.0 | 0.00 | 0.02 | 0.00 | 80 | 1017.1 |
| 20260831222621 | 75 | 228 | 1.0 | 2.0 | 0.00 | 0.02 | 0.00 | 80 | 1017.1 |
| 20260831222405 | 75 | 228 | 0.0 | 1.0 | 0.00 | 0.02 | 0.00 | 81 | 1017.1 |
| 20260831222125 | 75 | 228 | 0.0 | 1.0 | 0.00 | 0.02 | 0.00 | 81 | 1017.1 |
| 20260831221909 | 75 | 228 | 0.0 | 2.0 | 0.00 | 0.02 | 0.00 | 81 | 1017.0 |
| 20260831221651 | 75 | 228 | 0.0 | 2.0 | 0.00 | 0.02 | 0.00 | 80 | 1017.1 |
| 20260831221431 | 75 | 228 | 0.0 | 2.0 | 0.00 | 0.02 | 0.00 | 80 | 1017.1 |
| 20260831221129 | 75 | 228 | 1.0 | 2.0 | 0.00 | 0.02 | 0.00 | 80 | 1017.1 |
| 20260831220936 | 75 | 228 | 1.0 | 1.0 | 0.00 | 0.02 | 0.00 | 80 | 1017.1 |
| 20260831220612 | 75 | 228 | 0.0 | 1.0 | 0.00 | 0.02 | 0.00 | 81 | 1017.1 |
| 20260831220412 | 75 | 228 | 0.0 | 1.0 | 0.00 | 0.02 | 0.00 | 81 | 1017.1 |
| 20260831220110 | 75 | 228 | 0.0 | 1.0 | 0.00 | 0.02 | 0.00 | 81 | 1017.2 |
| 20260831215917 | 75 | 228 | 0.0 | 1.0 | 0.00 | 0.02 | 0.00 | 81 | 1017.1 |
| 20260831215615 | 75 | 228 | 0.0 | 2.0 | 0.00 | 0.02 | 0.00 | 81 | 1017.1 |
| 20260831215415 | 75 | 228 | 0.0 | 2.0 | 0.00 | 0.02 | 0.00 | 81 | 1017.1 |
| 20260831215113 | 76 | 228 | 0.0 | 2.0 | 0.00 | 0.02 | 0.00 | 81 | 1017.2 |
| 20260831214913 | 76 | 228 | 1.0 | 2.0 | 0.00 | 0.02 | 0.00 | 82 | 1017.2 |
| 20260831214615 | 75 | 228 | 1.0 | 2.0 | 0.00 | 0.02 | 0.00 | 82 | 1017.3 |
| 20260831214416 | 75 | 228 | 0.0 | 2.0 | 0.00 | 0.02 | 0.00 | 82 | 1017.2 |
| 20260831214113 | 75 | 228 | 1.0 | 2.0 | 0.00 | 0.02 | 0.00 | 81 | 1017.2 |
| 20260831213915 | 75 | 228 | 1.0 | 2.0 | 0.00 | 0.02 | 0.00 | 81 | 1017.2 |
| 20260831213611 | 75 | 228 | 1.0 | 3.0 | 0.00 | 0.02 | 0.00 | 82 | 1017.2 |
| 20260831213418 | 75 | 228 | 0.0 | 3.0 | 0.00 | 0.02 | 0.00 | 82 | 1017.2 |
| 20260831213115 | 76 | 228 | 1.0 | 3.0 | 0.00 | 0.02 | 0.00 | 81 | 1017.1 |
| 20260831212916 | 76 | 228 | 1.0 | 3.0 | 0.00 | 0.02 | 0.00 | 82 | 1017.2 |
| 20260831212614 | 76 | 228 | 1.0 | 3.0 | 0.00 | 0.02 | 0.00 | 83 | 1017.2 |
| 20260831212413 | 75 | 228 | 1.0 | 3.0 | 0.00 | 0.02 | 0.00 | 83 | 1017.2 |
| 20260831212117 | 75 | 228 | 1.0 | 3.0 | 0.00 | 0.02 | 0.00 | 84 | 1017.3 |
| 20260831211918 | 75 | 227 | 2.0 | 3.0 | 0.00 | 0.02 | 0.00 | 83 | 1017.4 |
| 20260831211616 | 75 | 227 | 1.0 | 2.0 | 0.00 | 0.02 | 0.00 | 83 | 1017.4 |
| 20260831211415 | 75 | 227 | 1.0 | 4.0 | 0.00 | 0.02 | 0.00 | 83 | 1017.4 |
| 20260831211119 | 75 | 227 | 1.0 | 5.0 | 0.00 | 0.02 | 0.00 | 83 | 1017.4 |
| 20260831210920 | 75 | 227 | 0.0 | 5.0 | 0.00 | 0.02 | 0.00 | 83 | 1017.4 |
| 20260831210618 | 75 | 227 | 3.0 | 5.0 | 0.00 | 0.02 | 0.00 | 83 | 1017.4 |
| 20260831210415 | 75 | 228 | 3.0 | 5.0 | 0.00 | 0.02 | 0.00 | 83 | 1017.4 |
| 20260831210139 | 75 | 205 | 3.0 | 5.0 | 0.00 | 0.02 | 0.00 | 84 | 1017.4 |
| 20260831205919 | 75 | 200 | 2.0 | 5.0 | 0.00 | 0.02 | 0.00 | 83 | 1017.4 |
| 20260831205617 | 75 | 227 | 2.0 | 4.0 | 0.00 | 0.02 | 0.00 | 83 | 1017.4 |
| 20260831205417 | 75 | 228 | 2.0 | 4.0 | 0.00 | 0.02 | 0.00 | 83 | 1017.5 |
| 20260831205115 | 75 | 226 | 2.0 | 5.0 | 0.00 | 0.02 | 0.00 | 83 | 1017.5 |
| 20260831204943 | 75 | 226 | 2.0 | 5.0 | 0.00 | 0.02 | 0.00 | 83 | 1017.5 |
| 20260831204620 | 75 | 226 | 3.0 | 5.0 | 0.00 | 0.02 | 0.00 | 83 | 1017.6 |
| 20260831204421 | 75 | 226 | 3.0 | 5.0 | 0.00 | 0.02 | 0.00 | 84 | 1017.6 |
| 20260831204124 | 74 | 250 | 3.0 | 6.0 | 0.00 | 0.02 | 0.00 | 85 | 1017.6 |
| 20260831203924 | 74 | 250 | 2.0 | 6.0 | 0.00 | 0.02 | 0.00 | 85 | 1017.7 |
| 20260831203622 | 74 | 216 | 3.0 | 8.0 | 0.00 | 0.02 | 0.00 | 84 | 1017.7 |
| 20260831203423 | 74 | 212 | 3.0 | 10.0 | 0.00 | 0.02 | 0.00 | 84 | 1017.6 |
| 20260831203147 | 74 | 216 | 3.0 | 10.0 | 0.00 | 0.02 | 0.00 | 83 | 1017.6 |
| 20260831202928 | 75 | 218 | 4.0 | 10.0 | 0.00 | 0.02 | 0.00 | 84 | 1017.6 |
| 20260831202605 | 75 | 202 | 7.0 | 10.0 | 0.00 | 0.02 | 0.00 | 83 | 1017.6 |
| 20260831202406 | 75 | 222 | 4.0 | 8.0 | 0.00 | 0.02 | 0.00 | 85 | 1017.5 |
| 20260831202110 | 74 | 215 | 5.0 | 10.0 | 0.00 | 0.02 | 0.00 | 86 | 1017.5 |
| 20260831201910 | 74 | 193 | 3.0 | 10.0 | 0.00 | 0.02 | 0.00 | 85 | 1017.4 |
| 20260831201608 | 74 | 222 | 4.0 | 10.0 | 0.00 | 0.02 | 0.00 | 85 | 1017.4 |
| 20260831201407 | 74 | 194 | 6.0 | 10.0 | 0.00 | 0.02 | 0.00 | 85 | 1017.4 |
| 20260831201132 | 74 | 241 | 4.0 | 11.0 | 0.00 | 0.02 | 0.00 | 85 | 1017.5 |
| 20260831200911 | 74 | 234 | 3.0 | 11.0 | 0.00 | 0.02 | 0.00 | 85 | 1017.5 |
| 20260831200609 | 74 | 239 | 5.0 | 11.0 | 0.00 | 0.02 | 0.00 | 85 | 1017.4 |
| 20260831200418 | 75 | 218 | 5.0 | 9.0 | 0.00 | 0.02 | 0.00 | 84 | 1017.4 |
| 20260831200114 | 75 | 202 | 5.0 | 8.0 | 0.00 | 0.02 | 0.00 | 84 | 1017.5 |
| 20260831195914 | 75 | 223 | 4.0 | 6.0 | 0.00 | 0.02 | 0.00 | 84 | 1017.5 |
| 20260831195612 | 75 | 229 | 3.0 | 5.0 | 0.00 | 0.02 | 0.00 | 82 | 1017.7 |
| 20260831195413 | 76 | 229 | 3.0 | 5.0 | 0.00 | 0.02 | 0.00 | 81 | 1017.7 |
| 20260831195110 | 76 | 243 | 0.0 | 2.0 | 0.00 | 0.02 | 0.00 | 83 | 1017.7 |
| 20260831194917 | 76 | 243 | 1.0 | 2.0 | 0.00 | 0.02 | 0.00 | 82 | 1017.8 |
| 20260831194614 | 76 | 243 | 1.0 | 2.0 | 0.00 | 0.02 | 0.00 | 82 | 1017.9 |
| 20260831194415 | 76 | 243 | 1.0 | 2.0 | 0.00 | 0.02 | 0.00 | 82 | 1017.9 |
| 20260831194113 | 76 | 243 | 0.0 | 2.0 | 0.00 | 0.02 | 0.00 | 81 | 1018.0 |
| 20260831193940 | 76 | 243 | 0.0 | 3.0 | 0.00 | 0.02 | 0.00 | 80 | 1018.0 |
| 20260831193613 | 76 | 243 | 0.0 | 4.0 | 0.00 | 0.02 | 0.00 | 79 | 1018.1 |
| 20260831193417 | 77 | 243 | 1.0 | 4.0 | 0.00 | 0.02 | 0.00 | 79 | 1018.1 |
| 20260831193138 | 77 | 243 | 2.0 | 4.0 | 0.00 | 0.02 | 0.00 | 77 | 1018.1 |
| 20260831192922 | 77 | 243 | 1.0 | 4.0 | 0.00 | 0.02 | 0.00 | 77 | 1018.1 |
| 20260831192636 | 77 | 243 | 1.0 | 4.0 | 0.00 | 0.02 | 0.00 | 77 | 1018.1 |
| 20260831192426 | 77 | 243 | 1.0 | 4.0 | 0.00 | 0.02 | 0.00 | 77 | 1018.1 |
| 20260831192117 | 77 | 243 | 1.0 | 4.0 | 0.00 | 0.02 | 0.00 | 76 | 1018.1 |
| 20260831191921 | 77 | 242 | 2.0 | 4.0 | 0.00 | 0.02 | 0.00 | 76 | 1018.1 |
| 20260831191615 | 77 | 242 | 0.0 | 4.0 | 0.00 | 0.02 | 0.00 | 74 | 1018.1 |
| 20260831191425 | 77 | 242 | 2.0 | 4.0 | 0.00 | 0.02 | 0.00 | 74 | 1018.0 |
| 20260831191119 | 78 | 242 | 2.0 | 4.0 | 0.00 | 0.02 | 0.00 | 74 | 1018.1 |
| 20260831190923 | 78 | 240 | 1.0 | 3.0 | 0.00 | 0.02 | 0.00 | 74 | 1018.1 |
| 20260831190616 | 78 | 240 | 1.0 | 4.0 | 0.00 | 0.02 | 0.00 | 74 | 1018.1 |
| 20260831190448 | 78 | 240 | 1.0 | 5.0 | 0.00 | 0.02 | 0.00 | 75 | 1018.1 |
| 20260831190142 | 77 | 240 | 2.0 | 5.0 | 0.00 | 0.02 | 0.00 | 73 | 1018.1 |
| 20260831185933 | 78 | 239 | 2.0 | 5.0 | 0.00 | 0.02 | 0.00 | 72 | 1018.2 |
| 20260831185606 | 78 | 203 | 3.0 | 4.0 | 0.00 | 0.02 | 0.00 | 71 | 1018.2 |
| 20260831185426 | 79 | 203 | 2.0 | 4.0 | 0.00 | 0.02 | 0.00 | 71 | 1018.2 |
| 20260831185111 | 78 | 203 | 2.0 | 4.0 | 0.00 | 0.02 | 0.00 | 71 | 1018.2 |
| 20260831184910 | 79 | 203 | 2.0 | 4.0 | 0.00 | 0.02 | 0.00 | 70 | 1018.1 |
| 20260831184607 | 79 | 203 | 1.0 | 4.0 | 0.00 | 0.02 | 0.00 | 70 | 1018.2 |
| 20260831184408 | 79 | 203 | 2.0 | 4.0 | 0.00 | 0.02 | 0.00 | 70 | 1018.2 |
| 20260831184106 | 79 | 203 | 2.0 | 4.0 | 0.00 | 0.02 | 0.00 | 70 | 1018.2 |
| 20260831183906 | 79 | 203 | 1.0 | 4.0 | 0.00 | 0.02 | 0.00 | 70 | 1018.2 |
| 20260831183610 | 80 | 203 | 1.0 | 4.0 | 0.00 | 0.02 | 0.00 | 69 | 1018.2 |
| 20260831183410 | 80 | 203 | 2.0 | 4.0 | 0.00 | 0.02 | 0.00 | 67 | 1018.1 |
| 20260831183109 | 80 | 203 | 1.0 | 3.0 | 0.00 | 0.02 | 0.00 | 68 | 1018.1 |
| 20260831182908 | 80 | 203 | 1.0 | 3.0 | 0.00 | 0.02 | 0.00 | 68 | 1018.2 |
| 20260831182633 | 80 | 203 | 1.0 | 3.0 | 0.00 | 0.02 | 0.00 | 68 | 1018.2 |
| 20260831182413 | 80 | 203 | 0.0 | 3.0 | 0.00 | 0.02 | 0.00 | 68 | 1018.2 |
| 20260831182111 | 80 | 203 | 1.0 | 3.0 | 0.00 | 0.02 | 0.00 | 67 | 1018.2 |
| 20260831181912 | 81 | 203 | 1.0 | 3.0 | 0.00 | 0.02 | 0.00 | 67 | 1018.2 |
| 20260831181615 | 81 | 203 | 1.0 | 3.0 | 0.00 | 0.02 | 0.00 | 67 | 1018.2 |
| 20260831181415 | 80 | 203 | 0.0 | 3.0 | 0.00 | 0.02 | 0.00 | 67 | 1018.2 |
| 20260831181140 | 80 | 203 | 1.0 | 3.0 | 0.00 | 0.02 | 0.00 | 69 | 1018.2 |
| 20260831180919 | 80 | 203 | 2.0 | 3.0 | 0.00 | 0.02 | 0.00 | 68 | 1018.2 |
| 20260831180617 | 80 | 203 | 2.0 | 4.0 | 0.00 | 0.02 | 0.00 | 69 | 1018.2 |
| 20260831180418 | 80 | 203 | 1.0 | 5.0 | 0.00 | 0.02 | 0.00 | 69 | 1018.2 |
| 20260831180116 | 79 | 203 | 1.0 | 5.0 | 0.00 | 0.02 | 0.00 | 69 | 1018.3 |
| 20260831175923 | 79 | 202 | 3.0 | 5.0 | 0.00 | 0.02 | 0.00 | 67 | 1018.3 |
| 20260831175621 | 80 | 193 | 3.0 | 5.0 | 0.00 | 0.02 | 0.00 | 67 | 1018.3 |
| 20260831175421 | 80 | 193 | 3.0 | 5.0 | 0.00 | 0.02 | 0.00 | 68 | 1018.3 |
| 20260831175138 | 79 | 208 | 1.0 | 5.0 | 0.00 | 0.02 | 0.00 | 68 | 1018.4 |
| 20260831174924 | 79 | 208 | 2.0 | 5.0 | 0.00 | 0.02 | 0.00 | 68 | 1018.5 |
| 20260831174621 | 79 | 175 | 2.0 | 7.0 | 0.00 | 0.02 | 0.00 | 69 | 1018.5 |
| 20260831174450 | 79 | 213 | 3.0 | 7.0 | 0.00 | 0.02 | 0.00 | 69 | 1018.5 |
| 20260831174125 | 79 | 220 | 3.0 | 7.0 | 0.00 | 0.02 | 0.00 | 67 | 1018.6 |
| 20260831173926 | 80 | 187 | 4.0 | 7.0 | 0.00 | 0.02 | 0.00 | 68 | 1018.6 |
| 20260831173624 | 80 | 208 | 3.0 | 7.0 | 0.00 | 0.02 | 0.00 | 68 | 1018.6 |
| 20260831173430 | 81 | 206 | 3.0 | 5.0 | 0.00 | 0.02 | 0.00 | 66 | 1018.6 |
| 20260831173109 | 81 | 162 | 2.0 | 4.0 | 0.00 | 0.02 | 0.00 | 68 | 1018.5 |
| 20260831172928 | 81 | 121 | 2.0 | 4.0 | 0.00 | 0.02 | 0.00 | 67 | 1018.6 |
| 20260831172605 | 81 | 120 | 2.0 | 5.0 | 0.00 | 0.02 | 0.00 | 66 | 1018.6 |
| 20260831172406 | 81 | 111 | 1.0 | 5.0 | 0.00 | 0.02 | 0.00 | 67 | 1018.7 |
| 20260831172109 | 81 | 99 | 2.0 | 7.0 | 0.00 | 0.02 | 0.00 | 66 | 1018.7 |
| 20260831171909 | 81 | 119 | 2.0 | 7.0 | 0.00 | 0.02 | 0.00 | 69 | 1018.6 |
| 20260831171607 | 81 | 112 | 3.0 | 7.0 | 0.00 | 0.02 | 0.00 | 68 | 1018.5 |
| 20260831171407 | 81 | 106 | 2.0 | 4.0 | 0.00 | 0.02 | 0.00 | 67 | 1018.5 |
| 20260831171111 | 81 | 103 | 1.0 | 6.0 | 0.00 | 0.02 | 0.00 | 67 | 1018.5 |
| 20260831170912 | 81 | 102 | 2.0 | 6.0 | 0.00 | 0.02 | 0.00 | 66 | 1018.6 |
| 20260831170609 | 81 | 99 | 2.0 | 6.0 | 0.00 | 0.02 | 0.00 | 66 | 1018.6 |
| 20260831170409 | 81 | 97 | 3.0 | 6.0 | 0.00 | 0.02 | 0.00 | 66 | 1018.7 |
| 20260831170107 | 81 | 100 | 3.0 | 6.0 | 0.00 | 0.02 | 0.00 | 69 | 1018.7 |
| 20260831165914 | 80 | 91 | 1.0 | 4.0 | 0.00 | 0.02 | 0.00 | 68 | 1018.7 |
| 20260831165612 | 80 | 90 | 2.0 | 4.0 | 0.00 | 0.02 | 0.00 | 68 | 1018.6 |
| 20260831165412 | 80 | 91 | 2.0 | 5.0 | 0.00 | 0.02 | 0.00 | 68 | 1018.7 |
| 20260831165110 | 80 | 61 | 2.0 | 5.0 | 0.00 | 0.02 | 0.00 | 67 | 1018.7 |
| 20260831164937 | 80 | 58 | 1.0 | 7.0 | 0.00 | 0.02 | 0.00 | 67 | 1018.8 |
| 20260831164613 | 81 | 53 | 3.0 | 7.0 | 0.00 | 0.02 | 0.00 | 67 | 1018.8 |
| 20260831164414 | 81 | 92 | 1.0 | 7.0 | 0.00 | 0.02 | 0.00 | 67 | 1018.8 |
| 20260831164110 | 81 | 98 | 4.0 | 7.0 | 0.00 | 0.02 | 0.00 | 67 | 1018.7 |
| 20260831163917 | 81 | 152 | 3.0 | 6.0 | 0.00 | 0.02 | 0.00 | 67 | 1018.7 |
| 20260831163614 | 81 | 135 | 1.0 | 6.0 | 0.00 | 0.02 | 0.00 | 67 | 1018.7 |
| 20260831163414 | 81 | 141 | 2.0 | 6.0 | 0.00 | 0.02 | 0.00 | 67 | 1018.7 |
| 20260831163113 | 80 | 135 | 1.0 | 5.0 | 0.00 | 0.02 | 0.00 | 69 | 1018.8 |
| 20260831162911 | 80 | 174 | 0.0 | 4.0 | 0.00 | 0.02 | 0.00 | 70 | 1018.7 |
| 20260831162617 | 80 | 174 | 2.0 | 4.0 | 0.00 | 0.02 | 0.00 | 69 | 1018.8 |
| 20260831162414 | 80 | 173 | 3.0 | 4.0 | 0.00 | 0.02 | 0.00 | 70 | 1018.8 |
| 20260831162112 | 80 | 160 | 2.0 | 3.0 | 0.00 | 0.02 | 0.00 | 67 | 1018.8 |
| 20260831161912 | 80 | 131 | 1.0 | 4.0 | 0.00 | 0.02 | 0.00 | 69 | 1018.8 |